• In Hungary
  • List of Countries
  • For 7 days
  • Water Temperature
  • Satellite Maps
  • Weather Map
  • News
  • Weather Widgets
  • user-avatar
    Login

    Hourly Weather Vladimirovka

    Today, 13 November, Tuesday

    Time Temperature Precipitation Wind Pressure Humidity
    00:00 -8°C° 0 mm 3 mps 770 mmHg 31%
    01:00 -8°C° 0 mm 3 mps 770 mmHg 31%
    02:00 -9°C° 0 mm 3 mps 770 mmHg 32%
    03:00 -9°C° 0 mm 3 mps 770 mmHg 33%
    04:00 -9°C° 0 mm 3 mps 770 mmHg 33%
    05:00 -9°C° 0 mm 3 mps 770 mmHg 33%
    06:00 -9°C° 0 mm 3 mps 770 mmHg 34%
    07:00 -10°C° 0 mm 4 mps 769 mmHg 33%
    08:00 -10°C° 0 mm 4 mps 769 mmHg 32%
    09:00 -10°C° 0 mm 5 mps 770 mmHg 30%
    10:00 -8°C° 0 mm 5 mps 769 mmHg 27%
    11:00 -7°C° 0 mm 4 mps 769 mmHg 25%
    12:00 -5°C° 0 mm 4 mps 769 mmHg 23%
    13:00 -5°C° 0 mm 4 mps 769 mmHg 23%
    14:00 -4°C° 0 mm 4 mps 768 mmHg 22%
    15:00 -4°C° 0 mm 4 mps 768 mmHg 22%
    16:00 -5°C° 0 mm 4 mps 768 mmHg 24%
    17:00 -6°C° 0 mm 3 mps 768 mmHg 27%
    18:00 -7°C° 0 mm 3 mps 768 mmHg 29%
    19:00 -7°C° 0 mm 3 mps 767 mmHg 30%
    20:00 -7°C° 0 mm 3 mps 767 mmHg 30%
    21:00 -7°C° 0 mm 3 mps 767 mmHg 31%
    22:00 -7°C° 0 mm 3 mps 766 mmHg 32%
    23:00 -8°C° 0 mm 3 mps 766 mmHg 32%

    Tomorrow, 14 November, Wednesday

    Time Temperature Precipitation Wind Pressure Humidity
    00:00 -8°C° 0 mm 3 mps 766 mmHg 33%
    01:00 -8°C° 0 mm 3 mps 766 mmHg 34%
    02:00 -8°C° 0 mm 3 mps 765 mmHg 34%
    03:00 -9°C° 0 mm 3 mps 765 mmHg 35%
    04:00 -9°C° 0 mm 3 mps 765 mmHg 35%
    05:00 -9°C° 0 mm 3 mps 764 mmHg 36%
    06:00 -9°C° 0 mm 3 mps 764 mmHg 36%
    07:00 -9°C° 0 mm 3 mps 764 mmHg 35%
    08:00 -9°C° 0 mm 4 mps 763 mmHg 35%
    09:00 -9°C° 0 mm 4 mps 763 mmHg 34%
    10:00 -8°C° 0 mm 4 mps 763 mmHg 34%
    11:00 -5°C° 0 mm 4 mps 762 mmHg 35%
    12:00 -4°C° 0 mm 4 mps 762 mmHg 35%
    13:00 -4°C° 0 mm 4 mps 762 mmHg 37%
    14:00 -3°C° 0 mm 4 mps 761 mmHg 40%
    15:00 -3°C° 0 mm 4 mps 761 mmHg 42%
    16:00 -4°C° 0 mm 4 mps 761 mmHg 46%
    17:00 -4°C° 0 mm 4 mps 761 mmHg 49%
    18:00 -5°C° 0 mm 3 mps 761 mmHg 53%
    19:00 -5°C° 0 mm 3 mps 761 mmHg 52%
    20:00 -5°C° 0 mm 3 mps 761 mmHg 51%
    21:00 -5°C° 0 mm 4 mps 761 mmHg 50%
    22:00 -5°C° 0 mm 3 mps 761 mmHg 47%
    23:00 -6°C° 0 mm 3 mps 761 mmHg 45%

    Day after tomorrow, 15 November, Thursday

    Time Temperature Precipitation Wind Pressure Humidity
    00:00 -6°C° 0 mm 3 mps 761 mmHg 43%
    01:00 -6°C° 0 mm 3 mps 761 mmHg 41%
    02:00 -6°C° 0 mm 3 mps 761 mmHg 40%
    03:00 -6°C° 0 mm 3 mps 761 mmHg 38%
    04:00 -6°C° 0 mm 3 mps 761 mmHg 38%
    05:00 -7°C° 0 mm 3 mps 761 mmHg 37%
    06:00 -7°C° 0 mm 3 mps 761 mmHg 36%
    07:00 -6°C° 0 mm 3 mps 762 mmHg 34%
    08:00 -6°C° 0 mm 3 mps 762 mmHg 32%
    09:00 -6°C° 0 mm 3 mps 763 mmHg 30%
    10:00 -5°C° 0 mm 3 mps 763 mmHg 27%
    11:00 -4°C° 0 mm 3 mps 763 mmHg 25%
    12:00 -2°C° 0 mm 3 mps 763 mmHg 23%
    13:00 -2°C° 0 mm 3 mps 763 mmHg 23%
    14:00 -1°C° 0 mm 3 mps 763 mmHg 24%
    15:00 -1°C° 0 mm 3 mps 763 mmHg 24%
    16:00 -2°C° 0 mm 3 mps 763 mmHg 27%
    17:00 -4°C° 0 mm 3 mps 763 mmHg 29%
    18:00 -5°C° 0 mm 3 mps 763 mmHg 32%
    19:00 -5°C° 0 mm 3 mps 763 mmHg 32%
    20:00 -5°C° 0 mm 3 mps 764 mmHg 33%
    21:00 -5°C° 0 mm 3 mps 764 mmHg 33%
    22:00 -6°C° 0 mm 3 mps 764 mmHg 34%
    23:00 -6°C° 0 mm 3 mps 764 mmHg 34%

    16 November, Friday

    Time Temperature Precipitation Wind Pressure Humidity
    00:00 -5°C° 0 mm 2 mps 764 mmHg 35%
    01:00 -5°C° 0 mm 2 mps 764 mmHg 35%
    02:00 -5°C° 0 mm 2 mps 765 mmHg 34%
    03:00 -5°C° 0 mm 2 mps 765 mmHg 34%
    04:00 -6°C° 0 mm 3 mps 765 mmHg 34%
    05:00 -6°C° 0 mm 3 mps 765 mmHg 34%
    06:00 -7°C° 0 mm 3 mps 765 mmHg 33%
    07:00 -6°C° 0 mm 3 mps 765 mmHg 32%
    08:00 -6°C° 0 mm 3 mps 765 mmHg 30%
    09:00 -5°C° 0 mm 3 mps 766 mmHg 29%
    10:00 -4°C° 0 mm 3 mps 766 mmHg 27%
    11:00 -2°C° 0 mm 3 mps 766 mmHg 25%
    12:00 -1°C° 0 mm 3 mps 766 mmHg 23%
    13:00 -1°C° 0 mm 3 mps 766 mmHg 24%
    14:00 -1°C° 0 mm 3 mps 765 mmHg 25%
    15:00 -1°C° 0 mm 3 mps 765 mmHg 26%
    16:00 -2°C° 0 mm 3 mps 765 mmHg 27%
    17:00 -2°C° 0 mm 3 mps 765 mmHg 29%
    18:00 -4°C° 0 mm 3 mps 765 mmHg 31%
    19:00 -5°C° 0 mm 3 mps 765 mmHg 30%
    20:00 -5°C° 0 mm 3 mps 765 mmHg 30%
    21:00 -4°C° 0 mm 2 mps 765 mmHg 29%
    22:00 -4°C° 0 mm 2 mps 765 mmHg 28%
    23:00 -4°C° 0 mm 2 mps 765 mmHg 27%

    17 November, Saturday

    Time Temperature Precipitation Wind Pressure Humidity
    00:00 -4°C° 0 mm 2 mps 765 mmHg 27%
    01:00 -4°C° 0 mm 2 mps 765 mmHg 26%
    02:00 -5°C° 0 mm 2 mps 764 mmHg 25%
    03:00 -5°C° 0 mm 2 mps 764 mmHg 25%
    04:00 -5°C° 0 mm 2 mps 764 mmHg 24%
    05:00 -5°C° 0 mm 2 mps 764 mmHg 24%
    06:00 -5°C° 0 mm 2 mps 763 mmHg 23%
    07:00 -5°C° 0 mm 2 mps 763 mmHg 22%
    08:00 -4°C° 0 mm 2 mps 763 mmHg 21%
    09:00 -4°C° 0 mm 2 mps 763 mmHg 20%
    10:00 -3°C° 0 mm 2 mps 762 mmHg 19%
    11:00 0°C° 0 mm 1 mps 762 mmHg 17%
    12:00 +1°C° 0 mm 1 mps 762 mmHg 15%
    13:00 +1°C° 0 mm 1 mps 761 mmHg 17%
    14:00 +1°C° 0 mm 1 mps 761 mmHg 18%
    15:00 +1°C° 0 mm 1 mps 760 mmHg 20%
    16:00 0°C° 0 mm 1 mps 760 mmHg 20%
    17:00 0°C° 0 mm 1 mps 759 mmHg 21%
    18:00 -1°C° 0 mm 1 mps 759 mmHg 21%
    19:00 -1°C° 0 mm 1 mps 758 mmHg 21%
    20:00 -1°C° 0 mm 1 mps 758 mmHg 22%
    21:00 -3°C° 0 mm 0 mps 757 mmHg 22%
    22:00 -2°C° 0 mm 1 mps 757 mmHg 22%
    23:00 -2°C° 0 mm 1 mps 756 mmHg 21%

    18 November, Sunday

    Time Temperature Precipitation Wind Pressure Humidity
    00:00 -2°C° 0 mm 1 mps 756 mmHg 21%
    01:00 -2°C° 0 mm 1 mps 755 mmHg 22%
    02:00 -4°C° 0 mm 2 mps 755 mmHg 22%
    03:00 -5°C° 0 mm 2 mps 754 mmHg 22%
    04:00 -5°C° 0 mm 2 mps 753 mmHg 23%
    05:00 -5°C° 0 mm 2 mps 753 mmHg 23%
    06:00 -5°C° 0 mm 2 mps 752 mmHg 23%
    07:00 -5°C° 0 mm 2 mps 752 mmHg 23%
    08:00 -4°C° 0 mm 2 mps 752 mmHg 23%
    09:00 -4°C° 0 mm 2 mps 751 mmHg 22%
    10:00 -3°C° 0 mm 2 mps 751 mmHg 21%
    11:00 -2°C° 0 mm 3 mps 751 mmHg 20%
    12:00 -1°C° 0 mm 3 mps 751 mmHg 19%
    13:00 -1°C° 0 mm 3 mps 750 mmHg 21%
    14:00 -1°C° 0 mm 2 mps 750 mmHg 23%
    15:00 -1°C° 0 mm 2 mps 750 mmHg 25%
    16:00 -1°C° 0 mm 2 mps 750 mmHg 27%
    17:00 -2°C° 0 mm 2 mps 751 mmHg 29%
    18:00 -2°C° 0 mm 2 mps 751 mmHg 31%
    19:00 -2°C° 0 mm 2 mps 751 mmHg 32%
    20:00 -3°C° 0 mm 2 mps 751 mmHg 33%
    21:00 -3°C° 0 mm 2 mps 751 mmHg 34%
    22:00 -3°C° 0 mm 2 mps 752 mmHg 35%
    23:00 -3°C° 0 mm 2 mps 752 mmHg 35%
    Show more